Portada
METAR-TAF:

METAR-TAF

Aeroports :

Aeroport de Casablanca

Casablanca, Marroc

latitud: 33-34N, longitud: 007-40W, altitud: 62 m

Observació

L'informe es va fer fa 5 hores i 56 minuts, a les 20:00 UTC
Vent 12 kt del Nord-Oest
Temperatura 22°C
Humitat 83%
Pressió 1015 hPa
Visibilitat 10 km o més
Núvols disperses a una alçada de 1600 ft

METAR: GMMC 182000Z 32012KT 9999 SCT016 22/19 Q1015

Hora: 02:56 (01:56 UTC)


TAF: manca

Observacions i pronòstics meteorològics de més de 4000 aeroports (METAR i TAF).

Les estacions disponibles són els punts grocs i vermells al mapa.

Posi el ratolí al punt desitjat per veure el nom de l'estació.

Feu clic per veure les observacions i els pronòstics meteorològics.

Per canviar el mapa: feu clic els botons verds amb una creu de color negre per apropar; al botó verd amb un guió per allunyar la imatge; o en les fletxes verdes per a mapes adjacents.


METAR-TAF: